[[{"header":{"parameterUnit":"m.s-1","parameterCategory":1,"la1":30.2991,"la2":30.254,"lo1":-89.0895,"lo2":-89.0444,"dy":0.0017,"dx":0.0017,"nx":28,"ny":28,"refTime":"2025-04-18T03:00:00:Z","depth":0,"parameterNumber":2,"parameterNumberName":"U-component_of_WINDS"},"data":[0,0,0,0,0,0,0,0,0,0,0,0,0,0,0,0,0,0,0,0,0,0,0,0,0,0,0,0,0,0,0,0,0,0,0,0,0,0,0,0,0,0,0,0,0,0,0,0,0,0,0,0,0,0,0,0,0,0,-4.3773,-4.3774,0,-4.3913,-4.3915,-4.3917,-4.3909,-4.3907,-4.3905,-4.3903,-4.4047,-4.4053,-4.4058,0,0,0,0,0,0,0,0,0,0,0,0,0,-4.3497,-4.3503,-4.3772,-4.3774,-4.3776,-4.3913,-4.3915,-4.3917,-4.3909,-4.3906,-4.3904,-4.3902,-4.4045,-4.4052,-4.4059,0,0,0,0,0,0,0,0,0,0,0,0,0,-4.3625,-4.3504,-4.3772,-4.3789,-4.3791,-4.3913,-4.3915,-4.3918,-4.391,-4.3906,-4.3903,-4.3901,-4.4043,-4.4051,-4.406,-4.4174,0,0,-4.4086,-4.409,0,0,0,0,0,0,0,0,-4.3618,-4.3636,-4.3784,-4.3788,-4.3791,-4.389,-4.3871,-4.4004,-4.391,-4.3865,-4.3903,-4.3899,-4.3997,-4.4009,-4.4043,-4.4181,-4.4187,-4.4087,-4.4092,-4.4096,-4.4098,0,0,0,0,0,0,0,-4.3609,-4.3629,-4.3828,-4.3787,-4.3791,-4.3789,-4.3804,-4.3896,-4.3946,-4.3868,-4.3868,-4.3885,-4.3999,-4.4034,-4.4046,-4.4189,-4.4087,-4.4094,-4.41,-4.4103,-4.4428,-4.4432,0,0,0,0,0,0,-4.3597,-4.3622,-4.3824,-4.3832,-4.3695,-4.3797,-4.3813,-4.3862,-4.3945,-4.3955,-4.3887,-4.3884,-4.4021,-4.4036,-4.4051,-4.419,-4.4096,-4.4104,-4.4109,-4.4425,-4.4429,-4.4433,0,0,0,0,0,0,-4.3591,-4.3615,-4.3818,-4.3727,-4.3753,-4.3805,-4.3859,-4.3866,-4.3902,-4.396,-4.3969,-4.3915,-4.4019,-4.4039,-4.4143,-4.4195,-4.4108,-4.4115,-4.4421,-4.4426,-4.4431,-4.4468,0,0,0,0,0,0,-4.3583,-4.3613,-4.3656,-4.3728,-4.3758,-4.3908,-4.3862,-4.3871,-4.3916,-4.3913,-4.3988,-4.3997,-4.4018,-4.4131,-4.4152,-4.4205,-4.4122,-4.4416,-4.4423,-4.4429,-4.4463,-4.4474,-4.4484,0,0,0,0,0,-4.3573,-4.3661,-4.3659,-4.3683,-4.3814,-4.3911,-4.3928,-4.3951,-4.3921,-4.3965,-4.4003,-4.3995,-4.4186,-4.4141,-4.4165,-4.4222,-4.4413,-4.4421,-4.4429,-4.4458,-4.4472,-4.4484,0,0,0,0,0,0,-4.3594,-4.3671,-4.3669,-4.3783,-4.3841,-4.3909,-4.3966,-4.3965,-4.4032,-4.4026,-4.4052,-4.4069,-4.4174,-4.4209,-4.4157,-4.4337,-4.4296,-4.4309,-4.431,-4.4324,-4.4334,-4.4322,-4.4129,0,0,0,0,0,-4.3612,-4.3684,-4.3748,-4.3843,-4.3872,-4.3914,-4.3957,-4.397,-4.4031,-4.4055,-4.41,-4.4159,-4.4233,-4.428,-4.4351,-4.4469,-4.4484,-4.4519,-4.453,-4.4538,-4.4549,-4.4613,-4.4629,-4.4458,-4.4458,-4.4458,0,0,-4.3649,-4.3701,-4.3745,-4.3848,-4.3894,-4.3968,-4.3934,-4.4015,-4.407,-4.4067,-4.4168,-4.4204,-4.4272,-4.4383,-4.4434,-4.4415,-4.46,-4.4548,-4.4555,-4.456,-4.4622,-4.4639,-4.4653,-4.4464,-4.4463,-4.4462,0,0,-4.3755,-4.3802,-4.3885,-4.3932,-4.4003,-4.4031,-4.4051,-4.4121,-4.4144,-4.4246,-4.4245,-4.4312,-4.4438,-4.4486,-4.4527,-4.4653,-4.4648,-4.4676,-4.4731,-4.4793,-4.4806,-4.4818,-4.4862,-4.4878,-4.4686,-4.4687,-4.4687,0,-4.3793,-4.3905,-4.3928,-4.4009,-4.4055,-4.4056,-4.4141,-4.4186,-4.4275,-4.4307,-4.4285,-4.4443,-4.4489,-4.4611,-4.4642,-4.4676,-4.4699,-4.4666,-4.4802,-4.4815,-4.4826,-4.4868,-4.4885,-4.4689,-4.4689,-4.4689,-4.4688,0,-4.3947,-4.4025,-4.4084,-4.4171,-4.4223,-4.4306,-4.4342,-4.4392,-4.4401,-4.4431,-4.4536,-4.4591,-4.4673,-4.4703,-4.4713,-4.4828,-4.4813,-4.4797,-4.4756,-4.4845,-4.4885,-4.4901,-4.4693,-4.4692,-4.4691,-4.4691,0,0,-4.4068,-4.4168,-4.4189,-4.4228,-4.4306,-4.4367,-4.445,-4.453,-4.4573,-4.4635,-4.4705,-4.4813,-4.4798,-4.4844,-4.486,-4.4915,-4.501,-4.4891,-4.4893,-4.491,-4.5138,-4.5149,-4.5167,-4.5008,-4.5011,-4.5014,-4.5132,0,-4.4181,-4.4327,-4.4352,-4.448,-4.4552,-4.4555,-4.4627,-4.4683,-4.4714,-4.478,-4.4815,-4.489,-4.4865,-4.4893,-4.4948,-4.4986,-4.5055,-4.4978,-4.5072,-4.5075,-4.5053,-4.5188,-4.52,-4.5309,-4.5148,-4.5151,-4.5153,0,-4.4332,-4.4398,-4.4533,-4.4602,-4.4633,-4.4698,-4.4773,-4.4837,-4.49,-4.4919,-4.4972,-4.4981,-4.5067,-4.5024,-4.5143,-4.509,-4.513,-4.5155,-4.516,-4.5168,-4.5118,-4.5198,-4.5345,-4.536,-4.5178,-4.5176,-4.5174,0,-4.4405,-4.4528,-4.4625,-4.4659,-4.4742,-4.4787,-4.4824,-4.4885,-4.4931,-4.4998,-4.5028,-4.5104,-4.5146,-4.5204,-4.5234,-4.5199,-4.5351,-4.531,-4.5368,-4.5367,-4.5398,-4.5395,-4.5551,-4.5427,-4.5426,-4.5426,-4.5426,0,-4.4527,-4.4609,-4.4659,-4.4718,-4.4811,-4.4839,-4.493,-4.4965,-4.502,-4.5086,-4.5095,-4.5157,-4.5193,-4.526,-4.5284,-4.5379,-4.5398,-4.5415,-4.542,-4.5413,-4.5411,-4.5438,-4.5431,-4.5431,-4.543,-4.5429,-4.5428,0,-4.4623,-4.466,-4.4765,-4.4836,-4.4855,-4.492,-4.498,-4.5038,-4.507,-4.5154,-4.5175,-4.5225,-4.5305,-4.534,-4.544,-4.5455,-4.5563,-4.5563,-4.5541,-4.5542,-4.5598,-4.5592,-4.5775,-4.58,-4.5661,-4.5663,-4.5664,0,-4.4698,-4.4761,-4.4839,-4.4884,-4.4922,-4.4994,-4.5042,-4.5073,-4.5122,-4.52,-4.5249,-4.5329,-4.5395,-4.5523,-4.5568,-4.5643,-4.5645,-4.5704,-4.5656,-4.5647,-4.5644,-4.5639,-4.5645,-4.5712,-4.5713,-4.5714,-4.5715,0,-4.4826,-4.4842,-4.491,-4.4985,-4.5042,-4.5103,-4.5162,-4.5199,-4.5239,-4.5294,-4.5376,-4.5427,-4.5529,-4.5608,-4.5687,-4.5725,-4.5727,-4.573,-4.5748,-4.574,-4.5724,-4.5732,-4.5563,-4.5725,-4.5724,-4.5724,-4.5723,-4.5723,-4.4913,-4.497,-4.5033,-4.5109,-4.5157,-4.5213,-4.527,-4.5309,-4.5378,-4.5462,-4.5477,-4.5564,-4.5627,-4.5733,-4.5774,-4.5843,-4.5829,-4.5854,-4.586,-4.5865,-4.5868,-4.5715,-4.5858,-4.5858,-4.5857,-4.5857,-4.5857,0,-4.5041,-4.5082,-4.5152,-4.5235,-4.5295,-4.5292,-4.5358,-4.5408,-4.5485,-4.5544,-4.5608,-4.5703,-4.578,-4.5831,-4.591,-4.5955,-4.5958,-4.5974,-4.597,-4.5979,-4.5877,-4.5853,-4.5971,-4.5971,-4.5971,-4.5971,-4.5971,-4.5971,-4.5114,-4.5209,-4.5232,-4.5351,-4.5392,-4.5477,-4.5515,-4.5566,-4.5613,-4.5718,-4.5782,-4.5815,-4.5871,-4.5954,-4.6025,-4.6038,-4.6066,-4.6083,-4.6095,-4.5998,-4.5986,-4.5975,-4.5953,-4.6089,-4.6089,-4.6191,-4.6192,-4.6193]},{"header":{"parameterUnit":"m.s-1","parameterCategory":1,"la1":30.2991,"la2":30.254,"lo1":-89.0895,"lo2":-89.0444,"dy":0.0017,"dx":0.0017,"nx":28,"ny":28,"refTime":"2025-04-18T03:00:00:Z","depth":0,"parameterNumber":3,"parameterNumberName":"V-component_of_WINDS"},"data":[0,0,0,0,0,0,0,0,0,0,0,0,0,0,0,0,0,0,0,0,0,0,0,0,0,0,0,0,0,0,0,0,0,0,0,0,0,0,0,0,0,0,0,0,0,0,0,0,0,0,0,0,0,0,0,0,0,0,4.2033,4.2034,0,4.2077,4.2077,4.2078,4.2045,4.2044,4.2043,4.2041,4.2083,4.2085,4.2088,0,0,0,0,0,0,0,0,0,0,0,0,0,4.1922,4.1924,4.2033,4.2034,4.2035,4.2077,4.2077,4.2078,4.2046,4.2044,4.2042,4.2041,4.2082,4.2085,4.2088,0,0,0,0,0,0,0,0,0,0,0,0,0,4.1969,4.1925,4.2033,4.2024,4.2023,4.2077,4.2077,4.2078,4.2046,4.2044,4.2042,4.204,4.2081,4.2085,4.2088,4.2153,0,0,4.21,4.2101,0,0,0,0,0,0,0,0,4.1966,4.1973,4.2024,4.2024,4.2024,4.2054,4.2053,4.2103,4.2046,4.2037,4.2041,4.2039,4.2075,4.2079,4.2092,4.2155,4.2157,4.21,4.2102,4.2104,4.2105,0,0,0,0,0,0,0,4.1963,4.1971,4.205,4.2025,4.2025,4.2017,4.2021,4.2063,4.2067,4.2038,4.2036,4.2041,4.2074,4.2088,4.2092,4.2157,4.21,4.2103,4.2105,4.2107,4.2279,4.2281,0,0,0,0,0,0,4.1961,4.1968,4.2049,4.2052,4.1989,4.2021,4.2025,4.2046,4.2067,4.2068,4.2043,4.204,4.2083,4.2088,4.2094,4.2172,4.2104,4.2107,4.2109,4.2276,4.2279,4.2282,0,0,0,0,0,0,4.1958,4.1968,4.2047,4.2009,4.2019,4.2025,4.2048,4.2048,4.2062,4.2071,4.2071,4.2056,4.2081,4.2088,4.2139,4.2173,4.2109,4.2112,4.2274,4.2277,4.2281,4.2329,0,0,0,0,0,0,4.1955,4.1968,4.1992,4.201,4.2021,4.2093,4.205,4.205,4.2069,4.2064,4.2083,4.2084,4.208,4.2134,4.2143,4.2177,4.2115,4.2271,4.2275,4.2279,4.2324,4.2334,4.2342,0,0,0,0,0,4.1952,4.2003,4.1993,4.2003,4.2052,4.2094,4.2101,4.2096,4.2071,4.2096,4.2102,4.2084,4.2168,4.214,4.2149,4.2185,4.2268,4.2274,4.2279,4.232,4.2332,4.2342,0,0,0,0,0,0,4.1987,4.2005,4.1995,4.2054,4.2073,4.2089,4.212,4.2107,4.2133,4.2128,4.212,4.2125,4.2179,4.2187,4.2155,4.225,4.2214,4.2222,4.2242,4.2253,4.2262,4.2259,4.2118,0,0,0,0,0,4.2002,4.2035,4.2049,4.21,4.211,4.2114,4.2132,4.2127,4.2146,4.2154,4.2163,4.2182,4.2214,4.2234,4.2263,4.2326,4.233,4.2355,4.2364,4.2371,4.2378,4.2414,4.2425,4.23,4.23,4.2299,0,0,4.2032,4.2046,4.2068,4.2107,4.2122,4.2157,4.2121,4.2158,4.2185,4.2159,4.2208,4.2217,4.2237,4.2295,4.2321,4.2304,4.2414,4.2378,4.2383,4.2386,4.242,4.2432,4.2443,4.2303,4.2303,4.2302,0,0,4.2106,4.212,4.2165,4.2181,4.2204,4.2206,4.2217,4.2236,4.224,4.229,4.2273,4.2303,4.2356,4.2373,4.2388,4.2472,4.2456,4.2481,4.2526,4.2562,4.2571,4.258,4.2611,4.2622,4.2488,4.2488,4.2488,0,4.2141,4.2193,4.2189,4.2229,4.2248,4.2228,4.2274,4.2289,4.232,4.2333,4.2314,4.2382,4.2394,4.2457,4.2478,4.249,4.2503,4.2478,4.2571,4.2579,4.2587,4.2617,4.2629,4.2491,4.249,4.249,4.249,0,4.2236,4.2273,4.2306,4.2339,4.2361,4.2403,4.2406,4.2429,4.2422,4.2427,4.2479,4.2494,4.2526,4.2541,4.2534,4.2603,4.2592,4.2572,4.2536,4.2602,4.263,4.2641,4.2495,4.2494,4.2493,4.2492,0,0,4.2331,4.2363,4.2375,4.2391,4.2416,4.2444,4.2487,4.252,4.2541,4.2563,4.2599,4.2646,4.2629,4.2646,4.2641,4.2672,4.274,4.2648,4.2649,4.2666,4.2818,4.2834,4.2847,4.273,4.2732,4.2734,4.2817,0,4.2407,4.2482,4.2481,4.255,4.2585,4.2569,4.2606,4.2626,4.2632,4.2663,4.2669,4.2703,4.2677,4.2687,4.2717,4.2725,4.277,4.2719,4.2764,4.2765,4.2759,4.2861,4.2877,4.2955,4.2828,4.283,4.2831,0,4.2505,4.2534,4.2607,4.263,4.2645,4.2678,4.271,4.2739,4.2762,4.2764,4.2786,4.2777,4.2821,4.2784,4.2845,4.2811,4.2829,4.2836,4.2839,4.2843,4.2802,4.2869,4.298,4.2992,4.2848,4.2846,4.2845,0,4.2569,4.2625,4.2677,4.2691,4.2718,4.2743,4.2755,4.2776,4.2797,4.2824,4.2838,4.287,4.2888,4.2913,4.2913,4.2887,4.2976,4.2939,4.2979,4.298,4.2998,4.2997,4.3115,4.301,4.301,4.3009,4.3009,0,4.2655,4.2701,4.2707,4.2739,4.2791,4.2789,4.284,4.285,4.2869,4.2903,4.289,4.2922,4.2921,4.2953,4.2954,4.3005,4.3013,4.3017,4.3016,4.3018,4.3018,4.303,4.3025,4.3012,4.3012,4.3011,4.3011,0,4.2734,4.274,4.2796,4.2818,4.2825,4.2862,4.2881,4.2912,4.2918,4.2962,4.2972,4.2981,4.3019,4.3022,4.3066,4.3067,4.3129,4.3123,4.3122,4.3121,4.3162,4.3158,4.3291,4.3309,4.3192,4.3193,4.3194,0,4.2788,4.2824,4.2851,4.2873,4.2888,4.2924,4.2946,4.2946,4.2969,4.3,4.3027,4.3064,4.3094,4.3156,4.3167,4.3201,4.3195,4.324,4.32,4.3202,4.3197,4.3195,4.32,4.3247,4.3249,4.325,4.325,0,4.2884,4.2886,4.2919,4.2954,4.2981,4.3008,4.3033,4.3052,4.3055,4.3083,4.3122,4.3146,4.3192,4.3229,4.3263,4.3276,4.3265,4.3263,4.3274,4.3277,4.3275,4.3278,4.3144,4.326,4.3259,4.3258,4.3258,4.3257,4.2954,4.2985,4.301,4.3048,4.3067,4.3092,4.3122,4.3133,4.3167,4.3205,4.3203,4.3247,4.3271,4.3316,4.3332,4.3366,4.3351,4.3367,4.3372,4.3376,4.3381,4.327,4.3372,4.3372,4.3372,4.3372,4.3371,0,4.305,4.3066,4.31,4.3137,4.3167,4.3155,4.3183,4.3209,4.3248,4.3272,4.3302,4.3349,4.3386,4.3401,4.3437,4.3463,4.3459,4.3472,4.3471,4.3474,4.3391,4.3378,4.3475,4.3475,4.3475,4.3475,4.3475,4.3475,4.3104,4.3157,4.3163,4.3226,4.3241,4.3286,4.3303,4.3326,4.3345,4.3398,4.343,4.3439,4.346,4.3498,4.3532,4.3536,4.355,4.3567,4.3568,4.349,4.348,4.347,4.3457,4.357,4.357,4.3648,4.3649,4.3649]}]]